SL-3 R/B (13403 NORAD) Tracking and Keplerian Element Data

This shows tracking and keplerian element data for the satellite.

Feedback or suggestion? Click here.




ElementValue
Catalog13403
NameSL-3 R/B
Epoch Orbit14884
Epoch Day16.1173301
Epoch Year2022
RAAN150.5874
Inclination81.1706
Eccentricity0.0032787
Argument of Perigee156.1456
Mean Anonmoly204.1297
Mean Motion15.07696848
Decay Rate2.059E-05
L11 13403U 82079B 22016.11733010 .00002059 00000+0 13183-3 0 9998
L22 13403 81.1706 150.5874 0032787 156.1456 204.1297 15.07696848148845

Live tracking and technical data element details for SL-3 R/B (NORAD 13403). SL-3 R/B can be tracked NOW for your location showing map with azimuth and elevation plus other details from your city location.

Track the satellite on the map from your city or location and see movement details for azimuth, elevation, latitude, longitude, range, height, and movement on the map or in text.







IsCatalogInMostPopularTable: catalog: 13403, numindb: 320
Update: records affected: 1



GetName: 13403 SL-3 R/B

Hit Count: updated at: Mon, 17 Jan 2022 02:09:11 GMT